ONEWEB-0185, 48220

Orbit data source: Space-Track

ONEWEB-0185, 48220 is a payload satellite owned by One Web (NAA) (UK) in LEO that was launched on Sun, 25 Apr 2021 UTC via a SOYUZ-2-1B launch vehicle from the Vostochny Cosmodrome (VOSTO). Payload-class satellites include a variety of spacecraft equipped with specific instruments for various scientific and technological missions. These include communications satellites like Starlink; space stations such as the ISS; scientific satellites like the Hubble; Earth observation satellites from companies like Planet Labs, Umbra, and HawkEye 360; GPS; miniature CubeSats for education and research; and military/defense satellites.

Loading next visibility...
Identifier
48220, 2021-031L
Orbit
LEO
Country
Flag of UKUK
Related business
Manufacturer
One Web
Mission
Operational Commercial Communications
Bus & Motor
ARROW, Unknown motor
Mass
148 kg wet, ~140 kg dry
Launch date (UTC)
2021-04-25 (5 years ago)
Launch vehicle
SOYUZ-2-1B
Launch site
Vostochny Cosmodrome (VOSTO)
Object type
Payload
Rocket body
Debris
Shape & HBR
Trap Box + 2 Pan, 6.7 m
Radar Cross Section
3.464 m², Large (>1 m²)

Expand to show TLE details & history
Last TLE update: 9 hours ago

TLE from 9 hours ago
0 ONEWEB-0185
1 48220U 21031L   26095.06864043 -.00000210  00000-0 -60127-3 0  9990
2 48220  87.8940 304.2880 0001351  79.0144 281.1138 13.14504140238644
Epoch: 2026-04-05T01:38Z
TLE epoch observation values (Epoch: 2026-04-05T01:38:50.533Z)
Latitude
0.00003°
Longitude
86.19808°
Altitude
1,208.482 km
Speed
7.25 km/s
True Right ascension
20h 17m 09s
True Declination
0° 00' 00"
Sunlit
Object was in daylight at epoch
Visualization orbit readout
Latitude
Unknown
Longitude
Unknown
Altitude
Unknown
Speed
Unknown
Apparent Right ascension
Unknown
Apparent Declination
Unknown
Sunlit
N/A
Visualization observer readout
Local Sidereal Time
16:37:25
Azimuth
Unknown
Elevation
Unknown
Doppler factor
Unknown
Orbital elements
Apogee altitude
1,203.923 km
Perigee altitude
1,201.875 km
Semi-major axis
7,581.036 km
Eccentricity
0.00014
Inclination
87.894°
RAAN
304.288°
Arg. of periapsis
79.0144°
True anomaly
281.09861°
Mean anomaly
281.1138°
Eccentric anomaly
281.1062°
Mean motion
3.28814 °/min
Orbital period
109.48 mins
BSTAR
-0.00060127
Loading maneuver chart data...
Computing Atmospheric mass density...
Loading historical data...
Loading historical data...
Loading historical data...
Loading historical data...
Loading historical data...
Loading historical data...
Loading historical data...

Documentation

Showing up to 5 results
|